Tracking 25734 objects as of 29-May-2022
HD Live streaming from Space Station
objects crossing your sky now

STARLINK-3122

Track STARLINK-3122 now!
10-day predictions
STARLINK-3122 is classified as:


NORAD ID: 49445
Int'l Code: 2021-104AP
Perigee: 545.2 km
Apogee: 548.6 km
Inclination: 53.2 °
Period: 95.4 minutes
Semi major axis: 6917 km
RCS: Unknown
Launch date: November 13, 2021
Source: United States (US)
Launch site: AIR FORCE EASTERN TEST RANGE (AFETR)
aabbcc
Your satellite tracking list
Your tracking list is empty




NASA's NSSDC Master Catalog

Two Line Element Set (TLE):
1 49445U 21104AP  22148.91667824  .00033618  00000-0  21204-2 0  9996
2 49445  53.2167 297.6624 0002509  24.1910 317.1187 15.08837770 31403
Source of the keplerian elements: AFSPC